Location: Poughquag
(41.6090°N, 73.6820°W)
Time: 12:45:08
(UTC-04:00)

Tiros 1 despin weight - Pass Details

Date: 05 June 2020
Orbit: 593 x 642 km, 48.2° (Epoch: 07 July)

Event Time Altitude Azimuth Distance (km) Brightness Sun altitude
Rises 12:26:31 0° 289° (WNW) 2,920 ? 70.2°
Reaches altitude 10° 12:29:01 10° 298° (WNW) 2,004 ? 70.4°
Maximum altitude 12:33:18 37° 6° (N) 971 ? 70.6°
Drops below altitude 10° 12:37:31 10° 75° (ENE) 1,973 ? 70.7°
Sets 12:39:57 0° 83° (E) 2,868 ? 70.8°
